[[{"header":{"parameterUnit":"m.s-1","parameterCategory":1,"la1":30.2991,"la2":30.254,"lo1":-89.0895,"lo2":-89.0444,"dy":0.0017,"dx":0.0017,"nx":28,"ny":28,"refTime":"2023-10-24T09:00:00:Z","depth":0,"parameterNumber":2,"parameterNumberName":"U-component_of_WINDS"},"data":[0,0,0,0,0,0,0,0,0,0,0,0,0,0,0,0,0,0,0,0,0,0,0,0,0,0,0,0,0,0,0,0,0,0,0,0,0,0,0,0,0,0,0,0,0,0,0,0,0,0,0,0,0,0,0,0,0,0,-5.271,-5.271,0,-5.2747,-5.2747,-5.2748,-5.2586,-5.2581,-5.2576,-5.2572,-5.2615,-5.262,-5.2626,0,0,0,0,0,0,0,0,0,0,0,0,0,-5.2505,-5.251,-5.271,-5.271,-5.2711,-5.2747,-5.2747,-5.2748,-5.2587,-5.2581,-5.2575,-5.257,-5.2613,-5.2619,-5.2626,0,0,0,0,0,0,0,0,0,0,0,0,0,-5.2574,-5.2511,-5.271,-5.2635,-5.2628,-5.2747,-5.2747,-5.2748,-5.2588,-5.2581,-5.2574,-5.2567,-5.2611,-5.2619,-5.2627,-5.2821,0,0,-5.2653,-5.2656,0,0,0,0,0,0,0,0,-5.257,-5.2581,-5.2645,-5.264,-5.2633,-5.2654,-5.269,-5.2772,-5.259,-5.2604,-5.2572,-5.2564,-5.2634,-5.264,-5.2663,-5.2823,-5.2825,-5.2653,-5.2658,-5.2662,-5.2664,0,0,0,0,0,0,0,-5.2565,-5.2579,-5.2725,-5.2647,-5.2639,-5.2601,-5.2603,-5.2705,-5.2658,-5.2602,-5.259,-5.2596,-5.2629,-5.2655,-5.2662,-5.2825,-5.2653,-5.266,-5.2666,-5.2669,-5.3146,-5.3154,0,0,0,0,0,0,-5.257,-5.2576,-5.2723,-5.2726,-5.2583,-5.261,-5.2612,-5.2655,-5.2657,-5.265,-5.2602,-5.2589,-5.2644,-5.2653,-5.2663,-5.289,-5.2662,-5.267,-5.2674,-5.3139,-5.3148,-5.3156,0,0,0,0,0,0,-5.2566,-5.2585,-5.2722,-5.2648,-5.2662,-5.2621,-5.267,-5.2659,-5.2685,-5.2657,-5.2648,-5.2637,-5.2639,-5.2652,-5.2782,-5.2889,-5.2673,-5.2681,-5.313,-5.3142,-5.3152,-5.3346,0,0,0,0,0,0,-5.2561,-5.2584,-5.2656,-5.265,-5.2667,-5.284,-5.2677,-5.2665,-5.2699,-5.2681,-5.2687,-5.2681,-5.2634,-5.2771,-5.2791,-5.2897,-5.2687,-5.312,-5.3135,-5.3149,-5.3329,-5.3362,-5.339,0,0,0,0,0,-5.2554,-5.271,-5.2661,-5.2679,-5.2756,-5.2846,-5.2855,-5.2797,-5.2708,-5.2781,-5.2763,-5.2681,-5.2875,-5.2786,-5.2807,-5.2917,-5.3113,-5.3131,-5.3148,-5.3316,-5.3356,-5.339,0,0,0,0,0,0,-5.2731,-5.2708,-5.2653,-5.2811,-5.2832,-5.2818,-5.2908,-5.2841,-5.2888,-5.287,-5.2796,-5.2799,-5.2943,-5.2943,-5.2845,-5.3105,-5.2979,-5.3001,-5.3099,-5.3137,-5.3167,-5.3164,-5.2694,0,0,0,0,0,-5.2789,-5.2862,-5.2839,-5.2981,-5.2994,-5.295,-5.2987,-5.294,-5.2959,-5.2967,-5.2959,-5.2982,-5.3047,-5.3092,-5.3151,-5.3329,-5.3328,-5.3415,-5.3445,-5.3471,-5.3491,-5.3585,-5.3624,-5.3213,-5.3213,-5.3213,0,0,-5.2908,-5.2905,-5.2956,-5.3017,-5.3027,-5.3106,-5.2958,-5.3049,-5.3107,-5.2981,-5.3103,-5.3099,-5.312,-5.3275,-5.3343,-5.3279,-5.3604,-5.3493,-5.3513,-5.3519,-5.3607,-5.3646,-5.368,-5.3225,-5.3223,-5.3221,0,0,-5.3166,-5.3171,-5.329,-5.3303,-5.3319,-5.3289,-5.3318,-5.3315,-5.3307,-5.3428,-5.3335,-5.3405,-5.352,-5.3538,-5.3563,-5.3829,-5.3755,-5.385,-5.4009,-5.4102,-5.4135,-5.4163,-5.4258,-5.4293,-5.3871,-5.3871,-5.3871,0,-5.3313,-5.3427,-5.336,-5.3456,-5.3486,-5.3374,-5.3495,-5.3511,-5.3548,-5.3572,-5.3499,-5.3641,-5.3647,-5.3805,-5.387,-5.3893,-5.3925,-5.3849,-5.4135,-5.4163,-5.4188,-5.4278,-5.4314,-5.3882,-5.3881,-5.388,-5.3879,0,-5.3607,-5.3688,-5.3783,-5.3818,-5.3859,-5.3968,-5.3918,-5.3967,-5.3917,-5.3895,-5.4021,-5.4024,-5.4082,-5.4116,-5.4069,-5.4268,-5.4228,-5.4147,-5.4019,-5.424,-5.4323,-5.4357,-5.3899,-5.3895,-5.3891,-5.3888,0,0,-5.3978,-5.3975,-5.4011,-5.4025,-5.4036,-5.4098,-5.4202,-5.4257,-5.4301,-5.433,-5.4416,-5.4516,-5.444,-5.4469,-5.4422,-5.4504,-5.4715,-5.4412,-5.4412,-5.4469,-5.4936,-5.4997,-5.5038,-5.4666,-5.4673,-5.4678,-5.4934,0,-5.4231,-5.4406,-5.4348,-5.4527,-5.4601,-5.4496,-5.4587,-5.4604,-5.4587,-5.4649,-5.463,-5.4702,-5.4597,-5.4613,-5.4689,-5.4673,-5.4808,-5.4654,-5.4747,-5.4751,-5.4745,-5.5081,-5.5145,-5.5387,-5.4966,-5.4972,-5.4976,0,-5.4549,-5.4589,-5.4775,-5.4772,-5.4801,-5.4884,-5.4929,-5.4989,-5.5007,-5.4989,-5.5021,-5.4958,-5.5061,-5.4933,-5.5075,-5.4972,-5.5007,-5.5005,-5.5013,-5.5019,-5.4877,-5.5097,-5.5463,-5.5499,-5.5026,-5.5022,-5.5018,0,-5.4801,-5.4901,-5.5025,-5.5041,-5.5042,-5.5102,-5.5106,-5.5116,-5.5153,-5.5194,-5.5217,-5.5271,-5.53,-5.5344,-5.5297,-5.5208,-5.5447,-5.5315,-5.5435,-5.5437,-5.549,-5.5487,-5.5867,-5.5514,-5.5513,-5.5512,-5.5512,0,-5.5089,-5.5207,-5.5138,-5.5214,-5.5343,-5.5277,-5.5407,-5.5399,-5.541,-5.5484,-5.5397,-5.5469,-5.5403,-5.547,-5.5434,-5.5558,-5.5572,-5.5561,-5.555,-5.5569,-5.557,-5.559,-5.5572,-5.5522,-5.552,-5.5518,-5.5516,0,-5.5392,-5.535,-5.5478,-5.5468,-5.5468,-5.5564,-5.5556,-5.5627,-5.5603,-5.5698,-5.5717,-5.5681,-5.5754,-5.5712,-5.5788,-5.5764,-5.5925,-5.5891,-5.5919,-5.5909,-5.6033,-5.6022,-5.6438,-5.649,-5.6104,-5.6108,-5.6111,0,-5.5578,-5.5666,-5.5665,-5.5707,-5.5716,-5.5786,-5.5822,-5.5761,-5.5803,-5.5831,-5.5899,-5.5965,-5.6014,-5.6137,-5.6119,-5.6177,-5.6144,-5.6286,-5.6152,-5.6168,-5.6146,-5.6141,-5.615,-5.6313,-5.6318,-5.6321,-5.6324,0,-5.5913,-5.5888,-5.5943,-5.5993,-5.6038,-5.6074,-5.6103,-5.6143,-5.6082,-5.6134,-5.6207,-5.6246,-5.6323,-5.639,-5.6439,-5.6444,-5.6376,-5.6367,-5.6397,-5.6417,-5.6429,-5.6424,-5.5992,-5.6357,-5.6354,-5.6351,-5.635,-5.6348,-5.6163,-5.6236,-5.6247,-5.6312,-5.6327,-5.6356,-5.6422,-5.6406,-5.6465,-5.6522,-5.6483,-5.657,-5.6587,-5.6646,-5.666,-5.6728,-5.6671,-5.6716,-5.6728,-5.674,-5.6757,-5.6419,-5.6737,-5.6736,-5.6735,-5.6735,-5.6734,0,-5.6494,-5.6495,-5.6555,-5.6598,-5.6649,-5.6578,-5.6606,-5.6655,-5.6731,-5.6752,-5.6802,-5.6887,-5.6952,-5.6939,-5.6997,-5.7055,-5.7025,-5.7072,-5.7067,-5.707,-5.6804,-5.6771,-5.7096,-5.7096,-5.7096,-5.7096,-5.7095,-5.7095,-5.6672,-5.6792,-5.6769,-5.6896,-5.6896,-5.6979,-5.7002,-5.7029,-5.7045,-5.7143,-5.7195,-5.7186,-5.7193,-5.7252,-5.7309,-5.7303,-5.7329,-5.7389,-5.7373,-5.7124,-5.7089,-5.7054,-5.7023,-5.7395,-5.7396,-5.7632,-5.7634,-5.7636]},{"header":{"parameterUnit":"m.s-1","parameterCategory":1,"la1":30.2991,"la2":30.254,"lo1":-89.0895,"lo2":-89.0444,"dy":0.0017,"dx":0.0017,"nx":28,"ny":28,"refTime":"2023-10-24T09:00:00:Z","depth":0,"parameterNumber":3,"parameterNumberName":"V-component_of_WINDS"},"data":[0,0,0,0,0,0,0,0,0,0,0,0,0,0,0,0,0,0,0,0,0,0,0,0,0,0,0,0,0,0,0,0,0,0,0,0,0,0,0,0,0,0,0,0,0,0,0,0,0,0,0,0,0,0,0,0,0,0,-1.2165,-1.2165,0,-1.2124,-1.2123,-1.2123,-1.2098,-1.2098,-1.2098,-1.2098,-1.2054,-1.2053,-1.2052,0,0,0,0,0,0,0,0,0,0,0,0,0,-1.222,-1.2219,-1.2165,-1.2165,-1.2164,-1.2124,-1.2123,-1.2123,-1.2098,-1.2098,-1.2098,-1.2098,-1.2054,-1.2053,-1.2052,0,0,0,0,0,0,0,0,0,0,0,0,0,-1.2189,-1.2218,-1.2165,-1.2147,-1.2145,-1.2124,-1.2123,-1.2123,-1.2098,-1.2098,-1.2098,-1.2098,-1.2055,-1.2053,-1.2052,-1.2045,0,0,-1.2047,-1.2046,0,0,0,0,0,0,0,0,-1.2191,-1.2187,-1.215,-1.2148,-1.2146,-1.2116,-1.2126,-1.2097,-1.2098,-1.2116,-1.2098,-1.2097,-1.2075,-1.2071,-1.2064,-1.2043,-1.2041,-1.2047,-1.2046,-1.2045,-1.2045,0,0,0,0,0,0,0,-1.2193,-1.2188,-1.2149,-1.215,-1.2147,-1.214,-1.2135,-1.2121,-1.2097,-1.2114,-1.2112,-1.2108,-1.2073,-1.2066,-1.2063,-1.2041,-1.2047,-1.2045,-1.2044,-1.2044,-1.2009,-1.2009,0,0,0,0,0,0,-1.2198,-1.219,-1.215,-1.2148,-1.2168,-1.2139,-1.2134,-1.2126,-1.2097,-1.2092,-1.2108,-1.2107,-1.2068,-1.2065,-1.2061,-1.205,-1.2045,-1.2043,-1.2043,-1.2009,-1.2009,-1.2009,0,0,0,0,0,0,-1.2199,-1.2195,-1.2152,-1.2168,-1.2162,-1.2138,-1.2129,-1.2125,-1.2117,-1.2092,-1.2087,-1.2105,-1.2068,-1.2063,-1.2049,-1.2048,-1.2043,-1.2041,-1.2009,-1.2009,-1.2009,-1.2029,0,0,0,0,0,0,-1.2201,-1.2195,-1.2194,-1.2169,-1.2162,-1.2141,-1.2129,-1.2124,-1.2115,-1.2113,-1.2088,-1.2083,-1.2068,-1.2051,-1.2047,-1.2046,-1.204,-1.2009,-1.2009,-1.2009,-1.2028,-1.2029,-1.2031,0,0,0,0,0,-1.2203,-1.2201,-1.2194,-1.2189,-1.2159,-1.2141,-1.2137,-1.212,-1.2115,-1.2112,-1.2095,-1.2084,-1.2049,-1.205,-1.2045,-1.2043,-1.2009,-1.2009,-1.2009,-1.2027,-1.2029,-1.2031,0,0,0,0,0,0,-1.2227,-1.2198,-1.2189,-1.2179,-1.2163,-1.2137,-1.2134,-1.2122,-1.2107,-1.2106,-1.2084,-1.2078,-1.2065,-1.2053,-1.2055,-1.2034,-1.2027,-1.2027,-1.2043,-1.2044,-1.2046,-1.2049,-1.2039,0,0,0,0,0,-1.2231,-1.222,-1.2194,-1.2188,-1.218,-1.2158,-1.215,-1.2137,-1.212,-1.2112,-1.2095,-1.2077,-1.2062,-1.2052,-1.2037,-1.2026,-1.2019,-1.2022,-1.2023,-1.2024,-1.2024,-1.2014,-1.2015,-1.201,-1.201,-1.201,0,0,-1.2239,-1.2222,-1.2216,-1.2192,-1.2178,-1.2166,-1.2153,-1.2141,-1.2131,-1.2111,-1.2095,-1.2082,-1.206,-1.2047,-1.204,-1.2036,-1.2023,-1.2024,-1.2026,-1.2024,-1.2014,-1.2015,-1.2015,-1.201,-1.201,-1.201,0,0,-1.2248,-1.2235,-1.2227,-1.2212,-1.2191,-1.2176,-1.2174,-1.215,-1.214,-1.2124,-1.2108,-1.2095,-1.207,-1.2054,-1.2043,-1.2043,-1.2032,-1.2039,-1.2046,-1.2037,-1.2037,-1.2037,-1.2036,-1.2035,-1.2038,-1.2039,-1.2039,0,-1.2261,-1.2243,-1.2224,-1.2212,-1.2201,-1.2182,-1.2173,-1.2159,-1.2134,-1.2126,-1.2122,-1.2088,-1.2073,-1.2054,-1.2054,-1.2046,-1.2042,-1.2042,-1.2039,-1.2039,-1.2039,-1.2037,-1.2036,-1.2039,-1.2039,-1.2039,-1.2039,0,-1.2259,-1.2246,-1.2242,-1.2218,-1.2206,-1.2196,-1.2174,-1.2164,-1.2152,-1.2137,-1.212,-1.21,-1.208,-1.2074,-1.2063,-1.2053,-1.2051,-1.2043,-1.2036,-1.204,-1.2038,-1.2037,-1.2041,-1.204,-1.204,-1.204,0,0,-1.2283,-1.2247,-1.2246,-1.2233,-1.2207,-1.2196,-1.2184,-1.2164,-1.2155,-1.2137,-1.2125,-1.2103,-1.2095,-1.2082,-1.2068,-1.206,-1.2059,-1.2053,-1.2052,-1.2054,-1.2045,-1.205,-1.205,-1.2051,-1.2051,-1.2051,-1.2046,0,-1.2287,-1.2265,-1.2247,-1.2231,-1.2217,-1.2197,-1.2186,-1.2168,-1.2153,-1.2138,-1.2121,-1.2105,-1.2097,-1.2088,-1.208,-1.2061,-1.2057,-1.2061,-1.2038,-1.2037,-1.2044,-1.2049,-1.2056,-1.2052,-1.2045,-1.2045,-1.2045,0,-1.229,-1.2272,-1.2255,-1.2228,-1.2222,-1.2213,-1.2191,-1.2178,-1.2156,-1.2145,-1.213,-1.2115,-1.2099,-1.2093,-1.2069,-1.2073,-1.2062,-1.2051,-1.205,-1.2047,-1.2041,-1.2045,-1.2051,-1.205,-1.2044,-1.2044,-1.2044,0,-1.2307,-1.228,-1.2265,-1.2256,-1.2224,-1.2218,-1.2204,-1.2182,-1.217,-1.2151,-1.2142,-1.2121,-1.211,-1.2093,-1.2072,-1.207,-1.2049,-1.2043,-1.2039,-1.2039,-1.2036,-1.2036,-1.2039,-1.203,-1.203,-1.203,-1.203,0,-1.2313,-1.2303,-1.2272,-1.2264,-1.2251,-1.2229,-1.2216,-1.2201,-1.2181,-1.2167,-1.2148,-1.2136,-1.2109,-1.2092,-1.2075,-1.2057,-1.2052,-1.2042,-1.2038,-1.2043,-1.2045,-1.2036,-1.2035,-1.203,-1.203,-1.203,-1.203,0,-1.2331,-1.231,-1.2293,-1.2264,-1.2256,-1.2248,-1.2223,-1.2212,-1.2195,-1.2178,-1.2173,-1.2146,-1.2125,-1.2102,-1.2074,-1.2062,-1.2045,-1.2039,-1.2052,-1.205,-1.2047,-1.2047,-1.2044,-1.2041,-1.2035,-1.2035,-1.2035,0,-1.2337,-1.2328,-1.2298,-1.2288,-1.2275,-1.2258,-1.2246,-1.2223,-1.221,-1.2183,-1.2175,-1.2153,-1.2134,-1.2101,-1.2078,-1.2056,-1.2049,-1.2049,-1.2045,-1.205,-1.2047,-1.2047,-1.2045,-1.205,-1.205,-1.2051,-1.2051,0,-1.2347,-1.2337,-1.232,-1.2299,-1.2284,-1.2266,-1.2248,-1.224,-1.2212,-1.2199,-1.2177,-1.2163,-1.2133,-1.211,-1.2085,-1.2069,-1.2054,-1.2052,-1.205,-1.2055,-1.2063,-1.2057,-1.2055,-1.2052,-1.2052,-1.2052,-1.2052,-1.2052,-1.2358,-1.2349,-1.2326,-1.2307,-1.229,-1.2272,-1.226,-1.2241,-1.2224,-1.2198,-1.2185,-1.2163,-1.2138,-1.2102,-1.2086,-1.2068,-1.2063,-1.206,-1.2059,-1.2059,-1.206,-1.2066,-1.2063,-1.2063,-1.2063,-1.2063,-1.2063,0,-1.2367,-1.2351,-1.2334,-1.2307,-1.2292,-1.228,-1.2258,-1.2245,-1.2226,-1.2205,-1.2186,-1.216,-1.2137,-1.2112,-1.2087,-1.2077,-1.2069,-1.2071,-1.2071,-1.2067,-1.2066,-1.207,-1.2077,-1.2077,-1.2077,-1.2077,-1.2077,-1.2077,-1.237,-1.2353,-1.234,-1.2313,-1.2296,-1.2275,-1.2263,-1.2246,-1.2228,-1.22,-1.2181,-1.2165,-1.2141,-1.2114,-1.2091,-1.2084,-1.2075,-1.2079,-1.2069,-1.2069,-1.2068,-1.2066,-1.207,-1.2077,-1.2077,-1.2072,-1.2072,-1.2072]}]]